Time,TemperatureF,DewpointF,PressureIn,WindDirection,WindDirectionDegrees,WindSpeedMPH,WindSpeedGustMPH,Humidity,HourlyPrecipIn,Conditions,Clouds,dailyrainin,SoftwareType,DateUTC
2014-07-24 00:13:00,70.0,-99.9,-100.00,North,-999,-999.0,-999.0,-999,0.41,,,0.91,,2014-07-24 04:13:00,
2014-07-24 00:24:00,70.0,-99.9,-100.00,North,-999,-999.0,-999.0,-999,0.41,,,0.91,,2014-07-24 04:24:00,
2014-07-24 00:30:00,69.0,-99.9,-100.00,North,-999,-999.0,-999.0,-999,0.02,,,0.93,,2014-07-24 04:30:00,
2014-07-24 01:13:00,69.0,-99.9,-100.00,North,-999,-999.0,-999.0,-999,0.02,,,0.93,,2014-07-24 05:13:00,
2014-07-24 02:22:00,68.0,-99.9,-100.00,North,-999,-999.0,-999.0,-999,0.01,,,0.94,,2014-07-24 06:22:00,
2014-07-24 02:30:00,67.0,-99.9,-100.00,North,-999,-999.0,-999.0,-999,0.00,,,0.94,,2014-07-24 06:30:00,
2014-07-24 03:12:00,67.0,-99.9,-100.00,North,-999,-999.0,-999.0,-999,0.00,,,0.94,,2014-07-24 07:12:00,
2014-07-24 03:22:00,67.0,-99.9,-100.00,North,-999,-999.0,-999.0,-999,0.00,,,0.94,,2014-07-24 07:22:00,
2014-07-24 03:30:00,66.0,-99.9,-100.00,North,-999,-999.0,-999.0,-999,0.00,,,0.94,,2014-07-24 07:30:00,
2014-07-24 04:30:00,65.0,-99.9,-100.00,North,-999,-999.0,-999.0,-999,0.00,,,0.94,,2014-07-24 08:30:00,
2014-07-24 05:30:00,64.0,-99.9,-100.00,North,-999,-999.0,-999.0,-999,0.00,,,0.94,,2014-07-24 09:30:00,
2014-07-24 06:13:00,64.0,-99.9,-100.00,North,-999,-999.0,-999.0,-999,0.00,,,0.94,,2014-07-24 10:13:00,
2014-07-24 06:30:00,64.0,-99.9,-100.00,North,-999,-999.0,-999.0,-999,0.01,,,0.95,,2014-07-24 10:30:00,
2014-07-24 07:30:00,64.0,-99.9,-100.00,North,-999,-999.0,-999.0,-999,0.00,,,0.95,,2014-07-24 11:30:00,
2014-07-24 08:13:00,64.0,-99.9,-100.00,North,-999,-999.0,-999.0,-999,0.00,,,0.95,,2014-07-24 12:13:00,
2014-07-24 09:12:00,65.0,-99.9,-100.00,North,-999,-999.0,-999.0,-999,0.00,,,0.95,,2014-07-24 13:12:00,
2014-07-24 09:22:00,65.0,-99.9,-100.00,North,-999,-999.0,-999.0,-999,0.00,,,0.95,,2014-07-24 13:22:00,
2014-07-24 09:30:00,67.0,-99.9,-100.00,North,-999,-999.0,-999.0,-999,0.00,,,0.95,,2014-07-24 13:30:00,
2014-07-24 09:33:00,65.0,-99.9,-100.00,North,-999,-999.0,-999.0,-999,0.00,,,0.95,,2014-07-24 13:33:00,
2014-07-24 09:42:00,65.0,-99.9,-100.00,North,-999,-999.0,-999.0,-999,0.00,,,0.95,,2014-07-24 13:42:00,
2014-07-24 10:12:00,67.0,-99.9,-100.00,North,-999,-999.0,-999.0,-999,0.00,,,0.95,,2014-07-24 14:12:00,
2014-07-24 10:22:00,67.0,-99.9,-100.00,North,-999,-999.0,-999.0,-999,0.00,,,0.95,,2014-07-24 14:22:00,
2014-07-24 10:30:00,69.0,-99.9,-100.00,North,-999,-999.0,-999.0,-999,0.00,,,0.95,,2014-07-24 14:30:00,
2014-07-24 11:13:00,69.0,-99.9,-100.00,North,-999,-999.0,-999.0,-999,0.00,,,0.95,,2014-07-24 15:13:00,
2014-07-24 11:23:00,69.0,-99.9,-100.00,North,-999,-999.0,-999.0,-999,0.00,,,0.95,,2014-07-24 15:23:00,
2014-07-24 11:30:00,72.0,-99.9,-100.00,North,-999,-999.0,-999.0,-999,0.00,,,0.95,,2014-07-24 15:30:00,
2014-07-24 12:13:00,72.0,-99.9,-100.00,North,-999,-999.0,-999.0,-999,0.00,,,0.95,,2014-07-24 16:13:00,
2014-07-24 12:30:00,73.0,-99.9,-100.00,North,-999,-999.0,-999.0,-999,0.00,,,0.95,,2014-07-24 16:30:00,
2014-07-24 13:24:00,73.0,-99.9,-100.00,North,-999,-999.0,-999.0,-999,0.00,,,0.95,,2014-07-24 17:24:00,
2014-07-24 13:30:00,73.0,-99.9,-100.00,North,-999,-999.0,-999.0,-999,0.00,,,0.95,,2014-07-24 17:30:00,
2014-07-24 14:13:00,73.0,-99.9,-100.00,North,-999,-999.0,-999.0,-999,0.00,,,0.95,,2014-07-24 18:13:00,
2014-07-24 14:23:00,73.0,-99.9,-100.00,North,-999,-999.0,-999.0,-999,0.00,,,0.95,,2014-07-24 18:23:00,
2014-07-24 15:12:00,74.0,-99.9,-100.00,North,-999,-999.0,-999.0,-999,0.00,,,0.93,,2014-07-24 19:12:00,
2014-07-24 15:42:00,74.0,-99.9,-100.00,North,-999,-999.0,-999.0,-999,0.00,,,0.93,,2014-07-24 19:42:00,
2014-07-24 17:12:00,74.0,-99.9,-100.00,North,-999,-999.0,-999.0,-999,0.00,,,0.69,,2014-07-24 21:12:00,
2014-07-24 17:22:00,74.0,-99.9,-100.00,North,-999,-999.0,-999.0,-999,0.00,,,0.69,,2014-07-24 21:22:00,
2014-07-24 17:30:00,75.0,-99.9,-100.00,North,-999,-999.0,-999.0,-999,0.00,,,0.69,,2014-07-24 21:30:00,
2014-07-24 18:13:00,75.0,-99.9,-100.00,North,-999,-999.0,-999.0,-999,0.00,,,0.69,,2014-07-24 22:13:00,
2014-07-24 18:23:00,75.0,-99.9,-100.00,North,-999,-999.0,-999.0,-999,0.00,,,0.69,,2014-07-24 22:23:00,